Timestamp,Temp,Chill,HIndex,Humid,Dewpt,Wind,HiWind,WindDir,Rain,RainRate,Barom,Solar,ET,UV,InsideTemp,InsideHumid
2020-03-09 00:00:00,41.8000000000001,40.5339031284615,41.8000000000001,86,37.924885805344,2.69798657718121,7,219.001440958063,0,0,29.2915906040269,0,0.0000390027248465755,0,75.2000000000001,35
2020-03-09 00:05:00,41.7562913907284,41.0501661851861,41.7562913907284,86,37.8819476891594,2.74834437086093,7,216.780716396592,0,0,29.2874304635761,0,0.0000364036030978067,0,75.2000000000001,35
2020-03-09 00:10:00,41.7033333333332,40.1722865015816,41.7033333333332,86,37.8299231736409,3.76,7,229.438780656967,0,0,29.2896,0,0.0000336440068853677,0,75.1186666666666,35
2020-03-09 00:15:00,41.7026845637583,39.7670477748815,41.7026845637583,85.4630872483222,37.6695499131985,3.76510067114094,8,219.305736890409,0,0,29.2916040268457,0,0.0000312929199242064,0,75,35
2020-03-09 00:20:00,41.7067114093959,40.1168310532827,41.7067114093959,85,37.5357244928487,3.67114093959732,8,235.854493727568,0,0,29.2922013422819,0,0.0000300232048890677,0,75,35
2020-03-09 00:25:00,41.7134228187919,40.1368381671016,41.7134228187919,85,37.5423085502411,3.51677852348993,8,237.744269383163,0,0,29.2912013422819,0,0.0000305276565823283,0,75,35
2020-03-09 00:30:00,41.7832214765102,39.4290512522417,41.7832214765102,85,37.6107827471222,4.47651006711409,9,224.256683826204,0,0,29.2932080536913,0,0.0000306093230924018,0,74.9993288590604,35
2020-03-09 00:35:00,41.8261744966443,38.2385442933463,41.8261744966443,85,37.6529206025579,6.88590604026846,17,228.179491182003,0,0,29.2964026845637,0,0.0000319019017702611,0,74.8999999999998,35
2020-03-09 00:40:00,41.9610738255034,39.8898848031991,41.9610738255034,85,37.7852593185123,4.26174496644295,17,232.259709991028,0,0,29.2964026845637,0,0.000034839051761531,0,74.8999999999998,35
2020-03-09 00:45:00,42.0073825503356,39.8027704231101,42.0073825503356,85,37.8306888870984,4.33557046979866,9,218.873127872601,0,0,29.2945906040269,0,0.0000343325224731761,0,74.8999999999998,35
2020-03-09 00:50:00,42.0697986577182,38.4289124801444,42.0697986577182,85,37.8919198205101,6.03355704697987,10,222.45769542116,0,0,29.2923959731543,0,0.0000353263210022837,0,74.8999999999998,35
2020-03-09 00:55:00,42.0362416107383,38.7557767374315,42.0362416107383,85,37.8589999638371,5.65771812080537,10,223.144394489424,0,0,29.2927919463087,0,0.0000379137112074368,0,74.7778523489934,35
2020-03-09 01:00:00,42,38.8095005390479,42,85,37.8234465186303,5.52666666666667,11,221.995260802372,0,0,29.2916,0,0.000039942045122645,0,74.7000000000001,35
2020-03-09 01:05:00,42,39.3807630386453,42,85.6308724832215,38.0113913202496,4.83221476510067,11,229.062538649019,0,0,29.2940067114093,0,0.000041789267916585,0,74.7000000000001,35
2020-03-09 01:10:00,41.9543046357615,37.9014544216064,41.9543046357615,86,38.0764695378458,6.81456953642384,12,226.499598838589,0,0,29.2951986754967,0,0.0000430664863213977,0,74.860264900662,35
2020-03-09 01:15:00,41.9556291390728,38.5125497356504,41.9556291390728,86,38.0777706823523,5.90066225165563,12,227.650042985942,0,0,29.2950066225166,0,0.0000444355333472749,0,74.8999999999998,35
2020-03-09 01:20:00,41.9275167785234,38.8415768189905,41.9275167785234,86,38.0501541085118,5.40939597315436,12,227.813524315021,0,0,29.2962013422819,0,0.0000458238320289775,0,74.8999999999998,35
2020-03-09 01:25:00,41.8999999999999,38.7358128929205,41.8999999999999,86,38.0231226130735,5.34228187919463,11,229.987269824223,0,0,29.297798657718,0,0.0000470142416970428,0,74.8999999999998,35
2020-03-09 01:30:00,41.8999999999999,39.5740957473568,41.8999999999999,86,38.0231226130735,4.55704697986577,10,226.557313051816,0,0,29.2973959731543,0,0.0000475586117260873,0,74.9208053691274,35
2020-03-09 01:35:00,41.8999999999999,39.259575739485,41.8999999999999,86.1744966442953,38.0745532870324,4.85906040268456,9,225.870268521023,0,0,29.296798657718,0,0.0000461892921643302,0,75,35
2020-03-09 01:40:00,41.951677852349,39.5162908085949,41.951677852349,86.7986577181208,38.3093523213085,4.63087248322148,10,228.162172028961,0,0,29.2975973154362,0,0.0000462560377092925,0,75,35
2020-03-09 01:45:00,42,38.977350011687,42,87,38.4162298718487,5.14093959731544,10,218.440186383438,0,0,29.2972013422818,0,0.0000453636994025725,0,75,35
2020-03-09 01:50:00,42,39.0954236892345,42,87,38.4162298718487,5.08724832214765,11,229.23435246311,0,0,29.2969999999999,0,0.0000444704152120454,0,75.1221476510068,35
2020-03-09 01:55:00,41.9899328859061,38.7220981112957,41.9899328859061,87.2080536912752,38.4670566793992,5.5503355704698,11,226.911022488904,0,0,29.2988053691275,0,0.0000441088857679781,0,75.2000000000001,35
2020-03-09 02:00:00,42,39.8097085973967,42,88,38.7081248185915,4.18120805369128,11,225.795111758802,0,0,29.2992080536913,0,0.0000427033941210547,0,75.2000000000001,35
2020-03-09 02:05:00,42,39.5376153689095,42,88,38.7081248185915,4.71812080536913,9,224.591608952133,0,0,29.2995973154362,0,0.0000403802406964908,0,75.2000000000001,35
2020-03-09 02:10:00,42,38.6177002726464,42,88,38.7081248185914,5.66887417218543,9,223.245122328672,0,0,29.2983973509933,0,0.0000391990433250993,0,75.360264900662,35
2020-03-09 02:15:00,42,38.9756428421714,42,88,38.7081248185915,5.21476510067114,9,217.049608123754,0,0,29.2971946308724,0,0.0000390668944749087,0,75.3999999999998,35
2020-03-09 02:20:00,42,38.2028719119537,42,88,38.7081248185914,6.28476821192053,14,219.830684305184,0,0,29.2958013245033,0,0.0000389556880648448,0,75.3999999999998,35
2020-03-09 02:25:00,42,39.187725419072,42,88,38.7081248185914,5.00662251655629,14,221.131143947505,0,0,29.2975894039735,0,0.0000394921481423771,0,75.3999999999998,35
2020-03-09 02:30:00,42.0328859060403,39.5649153820036,42.0328859060403,88,38.740518048736,4.67114093959732,10,221.609655254803,0,0,29.2982013422818,0,0.0000394571757115383,0,75.3999999999998,35
2020-03-09 02:35:00,42.0791946308726,39.1555986672608,42.0791946308726,88.006711409396,38.7880733659517,5.12751677852349,11,224.733979420487,0,0,29.3002080536913,0,0.0000383606091740912,0,75.3999999999998,35
2020-03-09 02:40:00,42.1000000000001,40.5205268688332,42.1000000000001,89,39.0957403934308,3.87919463087248,12,227.456625662174,0,0,29.3024026845637,0,0.0000383275326206617,0,75.3999999999998,35
2020-03-09 02:45:00,42.1046979865772,40.413510903019,42.1046979865772,89,39.1003741405704,3.93288590604027,12,235.506807033905,0,0,29.3029932885906,0,0.0000360269002201867,0,75.358389261745,35
2020-03-09 02:50:00,42.179865771812,41.3411965726021,42.179865771812,89,39.1745140948044,2.93959731543624,9,228.438829877421,0,0,29.3047986577181,0,0.0000350796154746465,0,75.2000000000001,35
2020-03-09 02:55:00,42.1966442953019,39.801623331381,42.1966442953019,88.751677852349,39.1192416997461,5.01342281879195,15,245.119954263977,0,0,29.3062080536913,0,0.0000324791713317859,0,75.2000000000001,35
2020-03-09 03:00:00,42.113422818792,39.9467976567534,42.113422818792,88,38.8198483628701,4.38926174496644,15,238.293180434981,0,0,29.3060067114093,0,0.0000329239171716558,0,75.2000000000001,35
2020-03-09 03:05:00,42.1161073825503,40.0439376175158,42.1161073825503,88,38.8224926991073,4.46979865771812,18,225.303451837674,0,0,29.304,0,0.0000327515388518253,0,75.2000000000001,35
2020-03-09 03:10:00,42.1932885906039,40.4949193543386,42.1932885906039,88,38.8985173659272,3.78523489932886,18,242.367324751597,0,0,29.3017919463088,0,0.0000321180144808224,0,75.1583892617449,35
2020-03-09 03:15:00,42.1999999999999,40.4825695571942,42.1999999999999,88,38.9051282065202,3.73154362416107,10,222.357896258048,0,0,29.3042080536913,0,0.0000313523081858533,0,75,35
2020-03-09 03:20:00,42.1999999999999,40.8639379109258,42.1999999999999,88,38.9051282065202,3.50335570469799,10,238.997237067219,0,0,29.3054093959732,0,0.0000299570805776195,0,75,35
2020-03-09 03:25:00,42.1999999999999,40.5173459535638,42.1999999999999,88,38.9051282065202,3.70860927152318,10,258.309479182113,0,0,29.3091986754968,0,0.0000291277889849615,0,75,35
2020-03-09 03:30:00,42.2503311258279,40.4789295071891,42.2503311258279,88.0728476821192,38.9757853282039,4.25165562913907,11,252.149403405853,0,0,29.31159602649,0,0.000028597493696054,0,75,35
2020-03-09 03:35:00,42.3000000000001,39.8296251355497,42.3000000000001,89,39.2930053198325,4.77852348993289,13,263.298888454215,0,0,29.3142013422818,0,0.0000281215145905847,0,75,35
2020-03-09 03:40:00,42.3939597315435,39.6505034810587,42.3939597315435,89,39.3856796820097,5.06711409395973,13,263.496380996471,0,0,29.3143959731544,0,0.0000286574266455062,0,74.9791946308724,35
2020-03-09 03:45:00,42.3999999999999,39.4014269860876,42.3999999999999,89,39.3916373195782,5.61073825503356,13,275.420873642728,0,0,29.3152147651006,0,0.0000293406712649851,0,74.8999999999998,35
2020-03-09 03:50:00,42.3999999999999,39.3786559558239,42.3999999999999,89,39.3916373195782,5.53020134228188,13,277.551808803475,0,0,29.3161946308725,0,0.000030830203366168,0,74.8999999999998,35
2020-03-09 03:55:00,42.3852348993289,39.2779294197138,42.3852348993289,88.0268456375839,39.0953584941112,5.69798657718121,13,275.159094706262,0,0,29.3176107382551,0,0.000031113096218431,0,74.8999999999998,35
2020-03-09 04:00:00,42.3000000000001,39.5792308638637,42.3000000000001,88,39.0036293931019,5.34228187919463,13,281.779798833637,0,0,29.3207986577181,0,0.0000318236619540783,0,74.8999999999998,35
2020-03-09 04:05:00,42.2389261744965,39.0239128976348,42.2389261744965,88,38.9434709502903,5.79194630872483,17,270.109897589821,0,0,29.3209932885906,0,0.0000323200169441107,0,74.8999999999998,35
2020-03-09 04:10:00,42.2,41.1216073315463,42.2,88,38.9051282065202,3.125,17,253.077629193329,0,0,29.318,0,0.0000333834833718647,0,74.9,35
2020-03-09 04:20:00,42.0999999999999,39.7550381731807,42.0999999999999,89,39.0957403934307,4.63513513513514,10,281.370059908979,0,0,29.328,0,0.0000337902554577915,0,74.8999999999999,35
2020-03-09 04:25:00,42.1000000000001,39.4086450351744,42.1000000000001,89,39.0957403934308,5,10,282.824559924741,0,0,29.3300134228188,0,0.0000342768018574054,0,74.8999999999998,35
2020-03-09 04:30:00,42.1040268456376,39.0997427646754,42.1040268456376,89.4630872483222,39.2322815739613,5.53691275167785,13,280.199375511566,0,0,29.3348255033557,0,0.0000346973434113442,0,74.8999999999998,35
2020-03-09 04:35:00,42.1999999999999,38.1252649169696,42.1999999999999,90,39.4807646485872,7.05298013245033,15,289.989568032574,0,0,29.3409735099337,0,0.000034351799331942,0,74.8999999999998,35
2020-03-09 04:40:00,42.2807947019869,39.3549303087634,42.2807947019869,90,39.5605592926451,5.33774834437086,15,260.355679058326,0,0,29.3441986754967,0,0.0000345055423048079,0,74.8999999999998,35
2020-03-09 04:45:00,42.306711409396,38.4378741148096,42.306711409396,90,39.586155190325,6.66442953020134,15,276.963432600501,0,0,29.3490067114094,0,0.0000343633314690941,0,74.8999999999998,35
2020-03-09 04:50:00,42.3926174496643,39.5556181618072,42.3926174496643,90,39.6709976652656,5.35570469798658,14,280.587710599009,0,0,29.3507852348994,0,0.000034943795061249,0,74.8999999999998,35
2020-03-09 04:55:00,42.3999999999999,38.1915923647045,42.3999999999999,90,39.6782888154558,7.44295302013423,18,268.794778455248,0,0,29.35122147651,0,0.000034770926322786,0,74.9208053691274,35
2020-03-09 05:00:00,42.4067114093959,38.2875475063232,42.4067114093959,90,39.6849171150255,7.12751677852349,18,280.839872873234,0,0,29.3582147651007,0,0.0000358488029631799,0,75,35
2020-03-09 05:05:00,42.4993288590604,38.5017079441075,42.4993288590604,90,39.7763876490879,7.05369127516779,18,279.84401754985,0,0,29.3648187919464,0,0.0000365226940043851,0,75,35
2020-03-09 05:10:00,42.5906040268457,38.3550471465853,42.5906040268457,90,39.8665322696397,7.29530201342282,18,276.842407024703,0,0,29.3674026845638,0,0.0000365893261302007,0,75,35
2020-03-09 05:15:00,42.6000000000001,39.2164808828244,42.6000000000001,90,39.8758118627385,6.22147651006711,14,285.33888518856,0,0,29.3691946308724,0,0.0000371228062855719,0,75,35
2020-03-09 05:20:00,42.5322147651007,40.7563826468458,42.5322147651007,89.9664429530201,39.7992426875942,3.89261744966443,13,272.306669921355,0,0,29.3673959731544,0,0.0000377762287352037,0,75,35
2020-03-09 05:25:00,42.5,40.0474179835037,42.5,89,39.490269010356,4.7986577181208,15,278.751924137108,0,0,29.3671946308725,0,0.0000364272844558419,0,74.9993288590604,35
2020-03-09 05:30:00,42.4711409395972,40.1699886457496,42.4711409395972,89,39.4618048311381,4.73825503355705,15,278.178847279353,0,0,29.3669932885906,0,0.0000370643982335989,0,74.8999999999998,35
2020-03-09 05:35:00,42.3999999999999,39.6833207502003,42.3999999999999,88.8666666666667,39.3530363758253,5.3,15,258.971411556259,0,0,29.3642,0,0.0000361308843516116,0,74.8999999999998,35
2020-03-09 05:40:00,42.3563758389262,38.7911504260534,42.3563758389262,87.8926174496644,39.0277721320781,6.38926174496644,15,269.750032823585,0,0,29.3656241610739,0,0.0000363764757084432,0,74.8999999999998,35
2020-03-09 05:45:00,42.3913907284767,37.5337207816219,42.3913907284767,87,38.8012371258815,8.36423841059603,15,271.377320561984,0,0,29.3709735099337,0,0.0000381046275598617,0,74.8986754966885,35
2020-03-09 05:50:00,42.5086092715232,38.0454012563381,42.5086092715232,87,38.9165427652912,7.64900662251656,16,273.387070465929,0,0,29.3793642384107,0,0.0000411531605762482,0,74.7000000000001,34.8013245033113
2020-03-09 05:55:00,42.5932885906041,39.3689498940086,42.5932885906041,87,38.9998398976557,5.6510067114094,16,273.889543100933,0,0,29.3888187919462,0,0.0000412459963769101,0,74.5778523489933,35
2020-03-09 06:00:00,42.6000000000001,40.2171384156207,42.6000000000001,87.8648648648649,39.2595783335116,4.72297297297297,13,278.966763459071,0,0,29.393804054054,0,0.0000405767272885822,0,74.4594594594593,35
2020-03-09 06:05:00,42.5966666666667,40.2050148044902,42.5966666666667,88,39.2958475842769,4.77333333333333,11,298.268933924285,0,0,29.3944066666667,0,0.0000395008243683756,0,74.2999999999999,35
2020-03-09 06:10:00,42.558389261745,40.6777252137175,42.558389261745,88,39.2581442746575,4.16107382550336,10,281.942937329445,0,0,29.3970134228188,0,0.000038308994608775,0,74.2999999999999,35
2020-03-09 06:15:00,42.5724832214766,40.4044390662402,42.5724832214766,88,39.2720268492104,4.44295302013423,10,266.307120633748,0,0,29.4002013422819,0,0.0000373720508044415,0,74.2999999999999,35
2020-03-09 06:20:00,42.6000000000001,41.01788724551,42.6000000000001,88,39.2991309233379,3.79194630872483,10,288.842067129295,0,0,29.4028053691275,0,0.000039345024795978,0,74.2999999999999,35
2020-03-09 06:25:00,42.6000000000001,41.0069516241739,42.6000000000001,88,39.2991309233379,3.69127516778523,8,280.6352575305,0,0,29.4092281879195,0,0.0000388332140380151,0,74.3818791946309,35
2020-03-09 06:30:00,42.6671140939596,41.6397215484084,42.6671140939596,88,39.3652381941979,3.16107382550336,8,264.233066059848,0,0,29.412610738255,0,0.0000385250446644443,0,74.5416107382552,35
2020-03-09 06:35:00,42.7510067114095,42.2702299435185,42.7510067114095,88.1744966442953,39.49848083591,2.26845637583893,8,278.456584449286,0,0,29.416,0,0.000038891430578195,0,74.7000000000001,35
2020-03-09 06:40:00,42.8275167785235,41.2830771172034,42.8275167785235,89,39.8133021527317,3.75167785234899,9,285.697141244434,0,0,29.4162080536913,0,0.0000363593325962734,0,74.8624161073823,35
2020-03-09 06:45:00,42.9536912751678,40.9599449706441,42.9536912751678,89,39.9377484627325,4.10738255033557,10,269.061014828231,0,0,29.418610738255,0,0.0000325179526502181,0,74.8999999999998,35
2020-03-09 06:50:00,43.1060402684564,41.1095228319371,43.1060402684564,89,40.0880101239405,4.28187919463087,10,266.672656386057,0,0,29.4212013422819,0,0.0000304943827690633,0,74.8999999999998,34.5906040268456
2020-03-09 06:55:00,43.2132450331125,42.2684021214773,43.2132450331125,88.7549668874172,40.1225320912911,3,10,254.894160272269,0,0,29.4231920529801,0.860927152317881,0.0000285155479142301,0,74.8999999999998,34
2020-03-09 07:00:00,43.3209459459459,42.4691844838719,43.3209459459459,88.1756756756757,40.0603208253498,2.95945945945946,9,265.228250960544,0,0,29.425,7.36486486486486,0.0000244698544734011,0,74.8999999999998,34
2020-03-09 07:05:00,43.3999999999999,41.7766898409408,43.3999999999999,88,40.0871201212057,4.04,10,271.593208556509,0,0,29.4283933333333,7,0.0000242398189161957,0,74.8999999999998,34
2020-03-09 07:10:00,43.4810810810811,42.4814259390454,43.4810810810811,88,40.1669826571495,3.25675675675676,10,264.748571198459,0,0,29.4308175675676,6.5,0.000025017552642432,0,74.8999999999998,34
2020-03-09 07:15:00,43.585234899329,42.0222121150519,43.585234899329,88,40.2695708881849,3.75167785234899,8,267.24449027305,0,0,29.4315906040268,13.4496644295302,0.0000250791679174666,0,74.8999999999998,34
2020-03-09 07:20:00,43.6208053691275,42.4423720636975,43.6208053691275,88.4563758389262,40.4374737532944,3.32214765100671,10,257.618901319418,0,0,29.4349798657719,22.1006711409396,0.000030583034912698,0,74.8999999999998,34
2020-03-09 07:25:00,43.6999999999999,42.8271339790164,43.6999999999999,89,40.6738252007028,2.8255033557047,10,261.837538705919,0,0,29.4379932885906,16.8590604026846,0.0000441294884734432,0,74.8999999999998,34
2020-03-09 07:30:00,43.7544217687076,42.657762018344,43.7544217687076,89,40.727500125505,3.23809523809524,8,252.891208269653,0,0,29.4399795918367,22.0340136054422,0.0000515243447769267,0,74.7775510204083,34.2040816326531
2020-03-09 07:35:00,43.8000000000001,43.5134389905793,43.8000000000001,89,40.7724528750269,2.04697986577181,8,255.905344508055,0,0,29.4412013422818,29.4496644295302,0.0000557546191382868,0,74.7000000000001,34.8053691275168
2020-03-09 07:40:00,43.8000000000001,41.5385148160494,43.8000000000001,88.4697986577181,40.617980690253,4.63758389261745,12,269.439422487944,0,0,29.4433825503356,59.9261744966443,0.0000574174354461189,0,74.7000000000001,35
2020-03-09 07:45:00,43.9093959731544,42.9788095884665,43.9093959731544,88,40.5888569161709,2.94630872483221,12,270.003949817654,0,0,29.4461879194631,100.214765100671,0.0000580328986722248,0,74.7000000000001,35
2020-03-09 07:50:00,44.0529801324505,43.3274470388561,44.0529801324505,88,40.7302806472847,2.77483443708609,7,266.242178909218,0,0,29.4463973509934,43.7814569536424,0.000057723074445626,0,74.7000000000001,35
2020-03-09 07:55:00,44.2026845637583,43.8363221379692,44.2026845637583,88,40.8777317927103,2.20134228187919,7,238.313378909192,0,0,29.4475906040268,36.496644295302,0.0000626708267856343,0,74.7000000000001,35
2020-03-09 08:00:00,44.310067114094,44.0309071960867,44.310067114094,88,40.9834976057608,2.32885906040268,6,236.66606057376,0,0,29.4492013422818,30.7852348993289,0.0000676427156738292,0,74.7000000000001,35
2020-03-09 08:05:00,44.4026845637583,43.686835990308,44.4026845637583,88,41.0747202868602,2.5503355704698,9,270.613258386416,0,0,29.4519798657719,44.0335570469799,0.0000719152536296283,0,74.5791946308725,35
2020-03-09 08:10:00,44.4939597315436,44.120882785052,44.4939597315436,88,41.1646206364136,1.97315436241611,9,275.55546208031,0,0,29.452389261745,36.9328859060403,0.0000764407850810898,0,74.5,35
2020-03-09 08:15:00,44.5510067114095,44.4513472489674,44.5510067114095,87.4765100671141,41.0662091556113,1.73154362416107,6,256.790727765899,0,0,29.4551879194631,39.4563758389262,0.0000802595141293522,0,74.5,35
2020-03-09 08:20:00,44.6000000000001,44.3534132749283,44.6000000000001,87,40.9737191033904,2.03311258278146,5,266.912076985695,0,0,29.4573841059603,38.3112582781457,0.0000843662687083599,0,74.5,35
2020-03-09 08:25:00,44.6973154362415,43.5459335929304,44.6973154362415,87,41.0694385725247,3.31543624161074,7,282.789583590761,0,0,29.4607852348993,39.3825503355705,0.0000885715585122752,0,74.5805369127519,35
2020-03-09 08:30:00,44.7577181208055,43.8228877825018,44.7577181208055,87,41.1288504445845,3.2751677852349,8,238.694123365385,0,0,29.4637852348994,47.993288590604,0.0000922934084508155,0.087248322147651,74.7000000000001,35
2020-03-09 08:35:00,44.889932885906,43.6448042073848,44.889932885906,87,41.2588960542367,3.66442953020134,11,245.196190579889,0,0,29.4669798657718,63.7718120805369,0.0000967380397296256,0.346979865771812,74.7000000000001,36
2020-03-09 08:40:00,45.0322147651008,43.5569639543499,45.0322147651008,87,41.3988428931867,3.76510067114094,11,257.979702722419,0,0,29.4703825503355,81.2013422818792,0.0000996743402941289,0.331543624161074,74.7000000000001,36
2020-03-09 08:45:00,45.1503355704697,44.1029216553068,45.1503355704697,86.6241610738255,41.4025888817567,3.36241610738255,10,260.345044416642,0,0,29.4717919463088,98.241610738255,0.000101271915264449,0.442953020134228,74.8999999999998,36
2020-03-09 08:50:00,45.2602649006623,44.6813101200925,45.2602649006623,86,41.3239084683884,2.49006622516556,7,266.727382619877,0,0,29.4749668874171,87.1920529801324,0.000107140837984702,0.260264900662252,74.8999999999998,36
2020-03-09 08:55:00,45.3960264900662,44.1595201212897,45.3960264900662,86,41.4572575377358,3.82119205298013,13,265.266385616653,0,0,29.4769867549669,100.390728476821,0.000113085207297082,0.66092715231788,75,36
2020-03-09 09:00:00,45.5622516556293,45.1994584391735,45.5622516556293,85.0198675496689,41.3238064769581,2.25165562913907,13,289.150471928367,0,0,29.4805761589405,147.245033112583,0.000120013151391779,0.489403973509934,74.9602649006621,35.6026490066225
2020-03-09 09:05:00,45.7483221476511,45.0682431641891,45.7483221476511,85,41.5003022083971,2.73825503355705,7,286.051966191433,0,0,29.4833959731543,114.51677852349,0.000130083795299492,0.461073825503356,74.4986577181207,35.4026845637584
2020-03-09 09:10:00,45.9671140939599,44.7756887069874,45.9671140939599,85,41.7149039761793,3.63087248322148,10,254.991710088538,0,0,29.4847785234899,198.872483221477,0.000138443951843124,0.720805369127515,74.0986577181206,35
2020-03-09 09:15:00,46.5288590604027,44.4940008124119,46.5288590604027,83.6912751677852,41.8623551740225,4.91275167785235,12,272.643822155,0,0,29.488187919463,388.268456375839,0.000152962091248204,0.811409395973153,73.4187919463088,34.5973154362416
2020-03-09 09:20:00,47.3879194630874,45.1251112210691,47.3879194630874,81.744966442953,42.0916682322061,5.43624161073826,12,273.069168883304,0,0,29.4884026845637,366.926174496644,0.000183486648063787,0.732885906040269,72.6174496644294,34.6040268456376
2020-03-09 09:25:00,47.613422818792,45.5042574599253,47.613422818792,80.1409395973154,41.7981515346169,5.26174496644295,13,275.510710513916,0,0,29.4872013422819,191.348993288591,0.000214773096912491,0.726845637583894,71.636912751678,34.8053691275168
2020-03-09 09:30:00,47.5550335570469,46.622717101755,47.5550335570469,80,41.6958882654936,3.3489932885906,13,282.623357502026,0,0,29.4876040268457,155,0.000231353229607799,0.806040268456376,70.8785234899328,35
2020-03-09 09:35:00,47.5,45.4432996817598,47.5,80,41.6422994752718,5.11409395973154,12,277.882551708342,0,0,29.4862013422819,191.288590604027,0.000241605020800868,0.887919463087248,70.358389261745,35.6040268456376
2020-03-09 09:40:00,47.4403973509932,45.1229793432472,47.4403973509932,79.2251655629139,41.3320628864667,5.68211920529801,15,276.035025821052,0,0,29.4868211920531,166.059602649007,0.000253446385292941,0.781456953642386,69.8814569536424,35.1986754966887
2020-03-09 09:45:00,47.3664429530202,45.3854666576296,47.3664429530202,79.6845637583893,41.4095985947104,5.0738255033557,15,256.884003372701,0,0,29.4853825503356,168.026845637584,0.000263332167996062,0.869127516778525,69.4389261744964,36
2020-03-09 09:50:00,47.3000000000001,44.8425310887352,47.3000000000001,79.7315436241611,41.360217103001,6,13,275.433336185501,0,0,29.486,170.651006711409,0.000272112350635162,0.970469798657718,69.2,36
2020-03-09 09:55:00,47.6579999999999,45.524298570156,47.6579999999999,80.1533333333333,41.8455019606359,5.52666666666667,13,287.104665736069,0,0,29.4854066666666,296.6,0.000281536562260501,1.152,69.04,36
2020-03-09 10:00:00,48.2099337748344,46.6821291325792,48.2099337748344,79,42.0069553057815,4.71523178807947,13,273.345270988916,0,0,29.4849867549669,296.311258278146,0.000295564974892357,1.15033112582781,68.9403973509932,36.3973509933775